Hourly Data Report for March 30, 2004

SHERBROOKE A
QUEBEC

45°26'00.000" N
71°41'00.000" W
241.40 m
7028124
71610
YSC

Download Data

Hourly Data (March 2004)
Hourly Data Report for March 30, 2004
TIME
LST
Temp Definition
°C
Dew Point Definition
°C
Rel Hum Definition
%
Precip. Amount Definition
mm

Wind Dir Definition
10's deg

Wind Spd Definition
km/h
Visibility Definition
km
Stn Press Definition
kPa
Hmdx Definition


Wind Chill Definition


Weather Definition


00:00 1.1 -7.0 55   15 6 15.0 99.68      
01:00 -0.5 -7.7 58   17 7 15.0 99.71   -3  
02:00 1.1 -7.0 55   15 13 15.0 99.68      
03:00 -1.9 -6.7 70   5 6 15.0 99.66   -4  
04:00 -1.2 -7.1 64   12 13 15.0 99.62   -5  
05:00 -3.2 -7.0 75   14 4 15.0 99.60   -5  
06:00 -3.2 -7.3 73     0 15.0 99.58      
07:00 0.9 -7.0 55   4 4 15.0 99.53      
08:00 3.7 -7.6 43     0 24.1 99.50     Clear
09:00 6.8 -6.4 38   30 6 24.1 99.41     Clear
10:00 9.7 -9.7 24   34 4 24.1 99.35     Clear
11:00 12.5 -11.2 18     0 24.1 99.26     Clear
12:00 13.8 -10.1 18   22 7 24.1 99.15     Clear
13:00 15.0 -10.6 16   18 11 24.1 99.07     Clear
14:00 16.0 -11.7 14   17 11 24.1 98.99     Clear
15:00 16.4 -11.6 14   19 7 24.1 98.92     Clear
16:00 15.7 -10.9 15   18 17 24.1 98.87     Clear
17:00 13.2 -6.2 25   14 20 24.1 98.87     Clear
18:00 10.0 -6.4 31   13 17 15.0 98.89      
19:00 8.1 -6.9 34   14 17 15.0 98.94      
20:00 5.5 -5.7 44   14 17 15.0 98.97      
21:00 4.0 -6.1 48   10 9 15.0 98.95      
22:00 3.0 -6.0 52   12 6 15.0 98.93      
23:00 2.0 -5.7 57   14 9 15.0 98.88      

Notes on Data Quality.

Legend

  • E = Estimated
  • M = Missing
  • NA = Not Available*
  • [empty] = Indicates an unobserved value
Date modified: